When you browse on this site, cookies collect data to enhance your experience and personalize the content and advertising you see.
Visit our Privacy Policy to learn more. By continuing to use the site, you agree to this use of cookies and data.
  • In United Kingdom
  • List of Countries
  • For 7 days
  • Water Temperature
  • Weather Map
  • Weather Widgets
  • user-avatar
    Login

    Hourly Weather Sarospatak

    Today, 14 November, Thursday

    Time Temperature Precipitation Wind Pressure Humidity
    00:00 +13°C° 0.2 mm 3 mps 745 mmHg 84%
    01:00 +13°C° 0.2 mm 3 mps 745 mmHg 85%
    02:00 +13°C° 0 mm 3 mps 745 mmHg 86%
    03:00 +13°C° 0 mm 3 mps 746 mmHg 87%
    04:00 +13°C° 0 mm 3 mps 746 mmHg 88%
    05:00 +13°C° 0 mm 2 mps 747 mmHg 89%
    06:00 +12°C° 0 mm 2 mps 747 mmHg 90%
    07:00 +12°C° 0 mm 1 mps 747 mmHg 91%
    08:00 +12°C° 0 mm 1 mps 748 mmHg 87%
    09:00 +13°C° 0 mm 1 mps 748 mmHg 83%
    10:00 +14°C° 0 mm 1 mps 748 mmHg 79%
    11:00 +14°C° 0 mm 1 mps 748 mmHg 78%
    12:00 +14°C° 0 mm 1 mps 748 mmHg 77%
    13:00 +15°C° 0 mm 1 mps 748 mmHg 75%
    14:00 +14°C° 0.1 mm 1 mps 748 mmHg 79%
    15:00 +14°C° 0.1 mm 1 mps 748 mmHg 82%
    16:00 +13°C° 0.1 mm 1 mps 748 mmHg 85%
    17:00 +13°C° 0 mm 1 mps 748 mmHg 86%
    18:00 +13°C° 0 mm 1 mps 749 mmHg 86%
    19:00 +13°C° 0 mm 1 mps 749 mmHg 87%
    20:00 +12°C° 0 mm 1 mps 749 mmHg 87%
    21:00 +12°C° 0 mm 1 mps 749 mmHg 88%
    22:00 +12°C° 0 mm 1 mps 749 mmHg 89%
    23:00 +12°C° 0 mm 1 mps 749 mmHg 89%

    Tomorrow, 15 November, Friday

    Time Temperature Precipitation Wind Pressure Humidity
    00:00 +12°C° 0 mm 1 mps 749 mmHg 90%
    01:00 +12°C° 0 mm 1 mps 749 mmHg 90%
    02:00 +12°C° 0 mm 1 mps 749 mmHg 90%
    03:00 +12°C° 0 mm 1 mps 749 mmHg 91%
    04:00 +12°C° 0 mm 1 mps 749 mmHg 91%
    05:00 +11°C° 0 mm 1 mps 749 mmHg 91%
    06:00 +10°C° 0 mm 0 mps 749 mmHg 92%
    07:00 +10°C° 0 mm 0 mps 750 mmHg 92%
    08:00 +12°C° 0 mm 1 mps 750 mmHg 88%
    09:00 +13°C° 0 mm 1 mps 750 mmHg 84%
    10:00 +15°C° 0 mm 1 mps 750 mmHg 81%
    11:00 +15°C° 0 mm 1 mps 750 mmHg 77%
    12:00 +16°C° 0 mm 1 mps 750 mmHg 74%
    13:00 +18°C° 0 mm 1 mps 750 mmHg 71%
    14:00 +16°C° 0 mm 1 mps 750 mmHg 75%
    15:00 +15°C° 0 mm 1 mps 750 mmHg 78%
    16:00 +14°C° 0 mm 1 mps 750 mmHg 82%
    17:00 +14°C° 0 mm 1 mps 750 mmHg 83%
    18:00 +13°C° 0 mm 1 mps 751 mmHg 84%
    19:00 +13°C° 0 mm 1 mps 751 mmHg 85%
    20:00 +13°C° 0 mm 2 mps 751 mmHg 86%
    21:00 +12°C° 0 mm 2 mps 751 mmHg 87%
    22:00 +12°C° 0 mm 2 mps 751 mmHg 87%
    23:00 +12°C° 0 mm 2 mps 751 mmHg 88%

    Day after tomorrow, 16 November, Saturday

    Time Temperature Precipitation Wind Pressure Humidity
    00:00 +12°C° 0 mm 2 mps 752 mmHg 88%
    01:00 +10°C° 0 mm 2 mps 752 mmHg 88%
    02:00 +10°C° 0 mm 2 mps 752 mmHg 88%
    03:00 +10°C° 0 mm 2 mps 752 mmHg 88%
    04:00 +10°C° 0 mm 2 mps 752 mmHg 88%
    05:00 +10°C° 0 mm 2 mps 752 mmHg 87%
    06:00 +9°C° 0 mm 2 mps 752 mmHg 87%
    07:00 +9°C° 0 mm 2 mps 752 mmHg 87%
    08:00 +12°C° 0 mm 2 mps 752 mmHg 81%
    09:00 +13°C° 0 mm 2 mps 753 mmHg 76%
    10:00 +13°C° 0 mm 3 mps 753 mmHg 70%
    11:00 +14°C° 0 mm 3 mps 753 mmHg 68%
    12:00 +16°C° 0 mm 2 mps 753 mmHg 66%
    13:00 +17°C° 0 mm 2 mps 753 mmHg 64%
    14:00 +16°C° 0 mm 2 mps 753 mmHg 67%
    15:00 +15°C° 0 mm 2 mps 753 mmHg 71%
    16:00 +14°C° 0 mm 1 mps 752 mmHg 74%
    17:00 +14°C° 0 mm 1 mps 753 mmHg 75%
    18:00 +13°C° 0 mm 1 mps 753 mmHg 76%
    19:00 +13°C° 0 mm 2 mps 753 mmHg 78%
    20:00 +13°C° 0 mm 1 mps 753 mmHg 78%
    21:00 +12°C° 0 mm 1 mps 753 mmHg 78%
    22:00 +12°C° 0 mm 1 mps 754 mmHg 78%
    23:00 +12°C° 0 mm 1 mps 754 mmHg 78%

    17 November, Sunday

    Time Temperature Precipitation Wind Pressure Humidity
    00:00 +12°C° 0 mm 1 mps 754 mmHg 77%
    01:00 +12°C° 0 mm 1 mps 753 mmHg 77%
    02:00 +12°C° 0 mm 1 mps 753 mmHg 77%
    03:00 +11°C° 0 mm 1 mps 753 mmHg 77%
    04:00 +11°C° 0 mm 1 mps 753 mmHg 77%
    05:00 +11°C° 0 mm 1 mps 753 mmHg 77%
    06:00 +11°C° 0 mm 1 mps 753 mmHg 77%
    07:00 +11°C° 0 mm 1 mps 753 mmHg 77%
    08:00 +12°C° 0 mm 1 mps 753 mmHg 73%
    09:00 +13°C° 0 mm 2 mps 753 mmHg 69%
    10:00 +14°C° 0 mm 2 mps 753 mmHg 65%
    11:00 +15°C° 0 mm 2 mps 753 mmHg 62%
    12:00 +15°C° 0 mm 2 mps 752 mmHg 60%
    13:00 +16°C° 0 mm 2 mps 752 mmHg 58%
    14:00 +15°C° 0 mm 2 mps 752 mmHg 61%
    15:00 +14°C° 0 mm 2 mps 752 mmHg 64%
    16:00 +13°C° 0 mm 2 mps 751 mmHg 67%
    17:00 +13°C° 0 mm 2 mps 751 mmHg 67%
    18:00 +12°C° 0 mm 2 mps 751 mmHg 67%
    19:00 +12°C° 0 mm 2 mps 751 mmHg 67%
    20:00 +12°C° 0 mm 2 mps 751 mmHg 68%
    21:00 +12°C° 0 mm 2 mps 750 mmHg 68%
    22:00 +12°C° 0 mm 1 mps 750 mmHg 69%
    23:00 +12°C° 0 mm 1 mps 750 mmHg 69%

    18 November, Monday

    Time Temperature Precipitation Wind Pressure Humidity
    00:00 +11°C° 0 mm 1 mps 749 mmHg 70%
    01:00 +11°C° 0 mm 1 mps 749 mmHg 70%
    02:00 +11°C° 0 mm 1 mps 749 mmHg 70%
    03:00 +11°C° 0 mm 1 mps 748 mmHg 70%
    04:00 +11°C° 0 mm 1 mps 748 mmHg 70%
    05:00 +11°C° 0 mm 1 mps 748 mmHg 71%
    06:00 +11°C° 0 mm 1 mps 748 mmHg 72%
    07:00 +10°C° 0 mm 1 mps 748 mmHg 73%
    08:00 +12°C° 0 mm 1 mps 749 mmHg 70%
    09:00 +13°C° 0 mm 1 mps 749 mmHg 67%
    10:00 +14°C° 0 mm 1 mps 749 mmHg 64%
    11:00 +14°C° 0 mm 3 mps 749 mmHg 64%
    12:00 +14°C° 0 mm 4 mps 750 mmHg 65%
    13:00 +15°C° 0 mm 5 mps 750 mmHg 66%
    14:00 +14°C° 0 mm 4 mps 750 mmHg 67%
    15:00 +13°C° 0 mm 3 mps 750 mmHg 69%
    16:00 +13°C° 0 mm 2 mps 751 mmHg 71%
    17:00 +13°C° 0 mm 2 mps 751 mmHg 72%
    18:00 +12°C° 0 mm 2 mps 751 mmHg 72%
    19:00 +12°C° 0 mm 2 mps 752 mmHg 73%
    20:00 +10°C° 0 mm 2 mps 752 mmHg 73%
    21:00 +11°C° 0 mm 1 mps 752 mmHg 73%
    22:00 +10°C° 0 mm 1 mps 753 mmHg 73%
    23:00 +10°C° 0 mm 1 mps 753 mmHg 74%

    19 November, Tuesday

    Time Temperature Precipitation Wind Pressure Humidity
    00:00 +10°C° 0 mm 1 mps 753 mmHg 74%
    01:00 +10°C° 0 mm 1 mps 753 mmHg 75%
    02:00 +9°C° 0 mm 1 mps 753 mmHg 78%
    03:00 +9°C° 0 mm 1 mps 753 mmHg 80%
    04:00 +9°C° 0 mm 1 mps 753 mmHg 83%
    05:00 +9°C° 0 mm 1 mps 753 mmHg 85%
    06:00 +8°C° 0 mm 1 mps 753 mmHg 86%
    07:00 +7°C° 0 mm 0 mps 753 mmHg 88%
    08:00 +10°C° 0 mm 1 mps 754 mmHg 83%
    09:00 +11°C° 0 mm 1 mps 754 mmHg 79%
    10:00 +12°C° 0 mm 1 mps 754 mmHg 75%
    11:00 +13°C° 0 mm 1 mps 753 mmHg 73%
    12:00 +14°C° 0 mm 1 mps 753 mmHg 71%
    13:00 +14°C° 0 mm 1 mps 752 mmHg 69%
    14:00 +13°C° 0 mm 1 mps 752 mmHg 73%
    15:00 +12°C° 0 mm 1 mps 752 mmHg 77%
    16:00 +12°C° 0 mm 1 mps 752 mmHg 81%
    17:00 +11°C° 0 mm 1 mps 752 mmHg 81%
    18:00 +11°C° 0 mm 1 mps 752 mmHg 81%
    19:00 +10°C° 0 mm 2 mps 752 mmHg 82%
    20:00 +10°C° 0 mm 2 mps 752 mmHg 82%
    21:00 +9°C° 0 mm 2 mps 752 mmHg 82%
    22:00 +9°C° 0 mm 2 mps 752 mmHg 83%
    23:00 +10°C° 0 mm 1 mps 752 mmHg 83%
    Show more